Total_Precipitation_Accumulation
0.02 0.03 0.07 0.04 0.04 0.06 0.07 0.07 0.07 0.06 0.05 0.05 0.05 0.05 0.04 0.02 0.02 0.02 0.03 0.04 0.05 0.06 0.08 0.09 0.10 0.11 0.12 0.13 0.12 0.10 0.08 0.07 0.10 0.13 0.16 0.16 0.20 0.37 0.54 0.58 0.71 0.54 0.47
0.01 0.02 0.06 0.05 0.05 0.06 0.08 0.09 0.08 0.08 0.06 0.05 0.05 0.05 0.05 0.03 0.02 0.02 0.03 0.03 0.04 0.05 0.06 0.07 0.08 0.08 0.08 0.08 0.08 0.06 0.05 0.07 0.12 0.17 0.19 0.15 0.21 0.34 0.49 0.47 0.69 0.50 0.38
0.01 0.02 0.04 0.05 0.05 0.06 0.07 0.08 0.10 0.10 0.06 0.05 0.05 0.07 0.09 0.05 0.03 0.03 0.02 0.03 0.03 0.04 0.04 0.05 0.06 0.05 0.04 0.04 0.03 0.03 0.04 0.08 0.14 0.21 0.37 0.27 0.18 0.36 0.48 0.48 0.45 0.33 0.29
0.01 0.02 0.03 0.05 0.05 0.05 0.06 0.07 0.10 0.11 0.08 0.07 0.08 0.10 0.10 0.07 0.03 0.03 0.03 0.03 0.03 0.03 0.03 0.04 0.04 0.03 0.03 0.02 0.01 0.02 0.04 0.08 0.15 0.26 0.50 0.35 0.17 0.25 0.36 0.35 0.29 0.24 0.21
0.03 0.02 0.03 0.05 0.05 0.05 0.05 0.06 0.10 0.13 0.11 0.10 0.13 0.13 0.11 0.09 0.07 0.05 0.05 0.06 0.05 0.04 0.03 0.03 0.03 0.03 0.02 0.02 0.02 0.02 0.05 0.09 0.16 0.27 0.35 0.32 0.37 0.27 0.27 0.32 0.33 0.29 0.24
0.05 0.03 0.05 0.07 0.08 0.07 0.06 0.05 0.08 0.13 0.13 0.12 0.14 0.16 0.13 0.14 0.15 0.10 0.06 0.08 0.09 0.06 0.04 0.04 0.03 0.02 0.02 0.02 0.02 0.03 0.06 0.11 0.15 0.20 0.21 0.22 0.38 0.37 0.31 0.44 0.50 0.46 0.36
0.08 0.06 0.06 0.08 0.09 0.08 0.08 0.08 0.08 0.09 0.10 0.09 0.09 0.09 0.09 0.11 0.18 0.14 0.11 0.09 0.09 0.07 0.05 0.04 0.04 0.03 0.02 0.02 0.03 0.04 0.08 0.13 0.17 0.21 0.19 0.22 0.30 0.27 0.35 0.56 0.72 0.70 0.58
0.15 0.16 0.12 0.13 0.11 0.09 0.08 0.09 0.10 0.10 0.08 0.08 0.06 0.05 0.05 0.06 0.08 0.11 0.12 0.12 0.10 0.07 0.05 0.05 0.05 0.05 0.04 0.04 0.05 0.06 0.10 0.14 0.14 0.17 0.19 0.22 0.23 0.26 0.44 0.67 0.79 0.85 0.78
0.21 0.23 0.17 0.17 0.15 0.14 0.14 0.13 0.11 0.11 0.11 0.09 0.09 0.08 0.08 0.08 0.09 0.12 0.14 0.14 0.14 0.13 0.10 0.07 0.07 0.07 0.07 0.06 0.05 0.06 0.09 0.14 0.18 0.22 0.23 0.31 0.42 0.47 0.67 0.83 0.82 0.85 0.86
0.25 0.26 0.22 0.23 0.26 0.24 0.20 0.19 0.18 0.17 0.16 0.14 0.13 0.13 0.12 0.12 0.14 0.18 0.18 0.18 0.21 0.22 0.18 0.16 0.13 0.10 0.11 0.08 0.07 0.08 0.10 0.11 0.11 0.16 0.23 0.29 0.46 0.63 0.82 0.88 0.90 0.91 0.90
0.33 0.30 0.28 0.29 0.33 0.34 0.30 0.30 0.30 0.29 0.26 0.22 0.24 0.25 0.24 0.23 0.30 0.41 0.35 0.40 0.40 0.42 0.40 0.37 0.34 0.29 0.24 0.17 0.16 0.21 0.15 0.08 0.10 0.16 0.26 0.40 0.56 0.78 0.97 0.98 0.96 0.99 1.00
0.42 0.35 0.32 0.33 0.33 0.34 0.42 0.60 0.54 0.50 0.50 0.44 0.50 0.57 0.58 0.61 0.59 0.51 0.59 0.77 0.90 1.03 0.96 0.88 0.86 0.66 0.52 0.42 0.75 0.96 0.30 0.14 0.16 0.23 0.34 0.43 0.67 1.04 1.24 1.12 1.01 0.99 0.94
0.53 0.44 0.42 0.52 0.52 0.47 0.48 0.58 0.64 0.64 0.72 0.68 0.70 0.82 0.87 0.86 0.82 0.75 0.82 1.01 1.15 1.31 1.25 1.46 1.53 1.20 1.14 1.10 1.19 1.14 0.54 0.42 0.36 0.34 0.49 0.67 0.84 1.16 1.45 1.29 1.10 1.00 0.90
0.89 0.75 0.73 0.85 0.79 0.73 0.71 0.74 0.73 0.77 0.83 0.83 0.92 0.97 1.13 1.20 1.13 1.10 1.16 1.23 1.34 1.48 1.77 1.74 1.85 1.76 1.60 1.48 1.40 1.22 0.95 0.85 0.73 0.76 0.97 0.89 0.91 1.18 1.52 1.40 1.22 1.11 1.02
1.34 1.24 1.16 1.08 1.01 0.92 0.91 0.95 0.97 1.00 1.01 1.13 1.28 1.30 1.38 1.56 1.51 1.51 1.45 1.50 1.46 1.67 1.95 2.03 1.96 2.13 2.15 1.92 1.65 1.46 1.35 1.23 1.05 1.07 1.19 1.17 1.11 1.19 1.43 1.51 1.39 1.30 1.20
1.59 1.62 1.52 1.46 1.40 1.39 1.40 1.44 1.41 1.40 1.51 1.60 1.58 1.54 1.63 1.78 1.95 1.97 1.83 1.79 1.70 1.73 1.91 2.05 2.11 2.53 2.39 2.26 1.84 1.63 1.56 1.50 1.36 1.24 1.28 1.39 1.22 1.11 1.19 1.41 1.54 1.49 1.43
1.78 1.79 1.80 1.87 1.86 1.93 1.88 1.86 1.78 1.79 1.79 1.78 1.78 1.86 1.87 1.87 2.06 2.13 2.12 1.99 1.97 1.97 2.08 2.08 2.26 2.50 2.23 2.12 1.84 1.73 1.64 1.51 1.37 1.38 1.48 1.55 1.42 1.24 1.07 1.15 1.38 1.50 1.55
1.98 2.06 2.09 2.13 2.19 2.25 2.22 2.16 2.10 2.01 1.87 1.74 1.78 1.90 1.91 1.96 2.15 2.23 2.04 1.93 2.21 2.28 2.32 2.40 2.45 2.46 2.33 2.25 2.05 1.73 1.60 1.55 1.24 1.25 1.28 1.23 1.28 1.12 1.17 1.31 1.40 1.45 1.57
2.42 2.49 2.58 2.61 2.54 2.42 2.43 2.43 2.46 2.37 2.12 1.92 1.90 1.94 1.97 1.92 2.00 2.14 1.96 2.02 2.26 2.34 2.32 2.17 2.46 2.44 2.38 2.28 1.93 1.64 1.41 1.24 1.12 1.00 0.97 0.89 0.98 0.97 1.02 1.17 1.30 1.30 1.49
2.61 2.73 2.72 2.80 2.91 2.95 2.89 2.70 2.66 2.46 2.21 2.13 2.12 2.14 2.07 1.97 2.01 2.15 2.03 2.11 2.26 2.32 2.27 2.29 2.41 2.45 2.29 2.24 1.79 1.46 1.25 1.01 0.98 0.92 0.78 0.80 0.81 0.75 0.77 0.93 1.17 1.03 1.30
2.83 2.94 3.00 3.44 3.53 3.36 3.09 2.77 2.59 2.47 2.39 2.27 2.13 1.97 1.93 1.94 2.03 2.22 2.11 2.25 2.27 2.11 2.10 2.27 2.40 2.27 2.06 2.24 1.99 1.40 1.02 0.82 0.83 0.78 0.78 0.84 0.80 0.75 0.80 0.99 1.09 1.04 1.00
2.79 2.99 2.92 2.79 2.85 2.85 2.76 2.67 2.62 2.66 2.41 2.19 2.07 1.89 1.77 1.81 1.89 1.91 1.96 1.94 1.99 2.03 2.03 2.10 2.27 2.08 1.77 2.00 1.97 1.67 1.10 0.85 0.74 0.65 0.77 0.79 0.78 0.87 0.90 0.99 1.20 1.32 1.22
2.11 2.18 2.18 2.16 2.03 1.98 2.03 2.16 2.23 2.28 2.08 1.91 1.84 1.77 1.65 1.60 1.57 1.58 1.61 1.74 1.96 2.06 2.00 2.04 2.07 1.94 1.64 1.67 1.83 1.89 1.38 0.99 0.77 0.53 0.59 0.71 0.87 1.02 1.01 1.17 1.26 1.36 1.43
1.77 1.74 1.64 1.64 1.63 1.61 1.69 1.79 1.79 1.77 1.67 1.63 1.64 1.56 1.50 1.44 1.41 1.38 1.40 1.46 1.53 1.62 1.65 1.59 1.71 1.83 1.77 1.59 1.70 1.75 1.61 1.42 1.22 0.78 0.61 0.66 0.85 0.96 1.06 1.07 1.07 1.14 1.40
1.20 1.28 1.30 1.37 1.37 1.37 1.38 1.42 1.45 1.42 1.42 1.43 1.37 1.31 1.25 1.21 1.27 1.27 1.22 1.21 1.18 1.24 1.36 1.39 1.50 1.55 1.60 1.58 1.61 1.68 1.65 1.62 1.57 1.36 0.97 0.92 0.92 0.82 0.90 0.98 1.01 1.05 1.31
0.98 1.08 1.13 1.20 1.23 1.22 1.21 1.22 1.22 1.22 1.21 1.20 1.16 1.17 1.14 1.09 1.03 1.02 1.05 1.07 1.06 1.11 1.20 1.29 1.36 1.32 1.42 1.47 1.51 1.59 1.65 1.63 1.66 1.66 1.34 1.18 1.08 0.92 0.94 0.91 0.91 0.97 1.18